MICROMAS-2A (43131 NORAD) Tracking and Keplerian Element Data

This shows tracking and keplerian element data for the satellite.

Feedback or suggestion? Click here.




ElementValue
Catalog43131
NameMICROMAS-2A
Epoch Orbit6566
Epoch Day78.73696734
Epoch Year2019
RAAN146.8528
Inclination97.4986
Eccentricity0.0008927
Argument of Perigee203.3942
Mean Anonmoly156.689
Mean Motion15.23758311
Decay Rate1.964E-05
L11 43131U 18004W 19078.73696734 .00001964 00000-0 84651-4 0 9993
L22 43131 97.4986 146.8528 0008927 203.3942 156.6890 15.23758311 65664

Live tracking and technical data element details for MICROMAS-2A (NORAD 43131). MICROMAS-2A can be tracked NOW for your location showing map with azimuth and elevation plus other details from your city location.

Track the satellite on the map from your city or location and see movement details for azimuth, elevation, latitude, longitude, range, height, and movement on the map or in text.







IsCatalogInMostPopularTable: catalog: 43131, numindb: 254
Update: records affected: 1



GetName: 43131 MICROMAS-2A

Hit Count: updated at: Thu, 21 Mar 2019 01:17:03 GMT